CAPE
4 5 3 2 3 3 1 1 0 0 1 2 2 2 1 0 0 0 0 0 0 0 0 0 0 0 0 0 0 0 0 0 0 0 0 0 0 0 0 0 0 0 14 562 1652
1 1 1 1 0 0 0 0 1 1 3 6 6 3 1 4 0 0 0 0 0 0 0 0 0 0 0 0 0 0 0 0 0 0 0 0 0 0 0 0 0 0 548 997 1659
1 0 0 0 0 0 0 0 0 0 1 6 3 4 4 9 0 0 0 0 0 0 0 0 0 0 0 0 0 0 0 0 0 0 0 0 0 0 0 0 0 0 11 524 848
2 1 0 0 0 0 0 0 0 0 0 2 6 2 13 5 0 0 0 0 0 0 0 0 0 0 0 0 0 0 0 0 0 0 0 0 0 0 0 0 0 0 0 140 249
1 0 0 0 0 0 0 0 1 2 4 5 2 6 10 0 0 0 0 0 0 0 0 0 0 0 0 0 0 0 0 0 0 0 0 0 0 0 0 0 0 0 0 0 47
1 1 1 0 0 0 0 1 2 5 7 2 2 18 17 0 0 0 0 0 0 0 0 0 0 0 0 0 0 0 0 0 0 0 0 0 0 0 0 0 0 0 0 0 0
0 0 0 0 0 0 0 0 1 0 3 3 5 15 6 0 0 0 0 0 0 0 0 0 0 0 0 0 0 0 0 0 0 0 0 0 0 0 0 0 0 0 0 0 0
0 0 0 0 0 1 0 0 0 0 0 0 6 8 1 0 0 0 0 0 0 0 0 0 0 0 0 0 0 0 0 0 0 0 0 0 0 0 0 0 0 0 0 0 0
0 0 0 0 1 1 0 0 0 0 0 0 0 0 0 0 1 0 2 0 0 0 0 0 0 0 0 0 0 0 0 0 0 0 0 0 0 0 0 0 0 0 0 0 0
1 0 1 2 2 0 0 0 0 0 0 0 14 8 0 0 0 0 0 0 0 0 0 0 0 0 0 0 0 0 0 0 0 0 0 0 0 0 0 0 0 0 0 0 0
0 0 0 0 0 0 0 0 0 0 0 0 0 0 0 0 0 0 0 7 3 46 0 0 0 11 0 0 0 0 0 0 0 0 0 0 0 0 0 0 0 0 0 0 0
0 0 0 0 0 0 0 0 0 0 0 0 0 1 1 0 0 0 0 0 29 7 14 21 3 0 0 0 0 2 0 0 0 0 0 0 0 0 0 0 0 0 0 0 0
0 0 0 0 0 0 0 0 0 0 0 0 0 0 0 0 0 2 0 0 0 0 2 0 0 0 0 0 0 11 5 0 0 0 0 0 0 0 0 0 0 0 0 0 0
0 0 0 0 0 0 0 0 0 0 0 0 1 8 0 0 2 9 0 0 0 0 14 5 0 5 8 0 0 0 0 0 0 0 0 0 0 0 0 0 0 0 0 0 0
0 0 0 0 0 0 0 0 0 0 0 0 0 0 0 16 31 12 1 0 0 7 30 0 12 34 34 2 0 0 0 0 0 0 0 0 0 0 0 0 0 0 0 0 0
0 0 0 0 0 0 0 0 0 0 0 0 0 0 0 0 7 53 19 0 7 5 5 0 0 0 1 3 11 12 0 0 0 0 0 0 0 0 1 0 0 0 0 0 0
0 0 0 0 0 0 0 0 0 0 0 0 0 0 0 0 0 14 6 10 0 0 0 0 0 0 0 0 11 36 10 0 0 0 0 0 0 0 0 0 0 0 0 0 0
0 0 0 0 0 0 0 0 0 0 0 0 1 0 3 0 0 3 0 0 1 1 3 0 2 1 0 1 54 21 5 0 0 0 0 0 0 0 0 0 0 0 0 0 0
0 0 0 0 0 0 0 0 0 2 5 1 0 0 0 0 2 0 0 0 3 12 0 1 0 0 2 45 48 35 19 5 9 7 0 0 0 0 0 1 1 0 0 0 0
0 0 0 0 0 0 0 0 1 4 0 1 3 6 1 0 0 0 0 3 5 2 2 5 0 0 9 54 59 0 0 0 0 1 6 0 0 0 0 48 24 0 0 0 0
0 0 0 0 0 0 0 0 0 0 7 4 2 2 3 12 1 0 0 9 0 0 0 2 4 0 0 0 2 15 0 0 0 25 1 0 0 0 0 114 155 177 0 0 27
0 0 0 0 0 0 0 0 0 4 0 0 0 0 12 4 4 2 3 0 0 6 2 1 0 0 0 4 0 5 53 7 5 1 12 1 0 120 483 359 398 693 625 914 1075
0 0 0 0 0 0 0 0 5 0 0 2 2 2 9 5 0 0 0 0 4 0 0 0 0 0 1 2 6 4 68 56 0 4 4 0 100 180 557 566 734 733 974 930 979
0 0 0 0 0 0 0 0 0 0 0 0 2 10 1 8 9 2 2 2 4 3 18 0 1 0 0 0 0 0 88 20 0 0 16 3 87 135 412 505 645 730 698 700 762
0 0 0 0 0 0 0 0 0 2 0 0 1 4 9 2 2 1 0 1 1 7 0 0 0 0 0 0 0 0 60 27 0 0 0 0 1 31 169 267 460 479 390 299 67
0 0 4 1 0 0 0 0 1 0 0 1 6 2 8 8 18 2 5 1 1 2 0 0 0 2 0 0 0 0 137 32 18 18 1 4 44 18 25 281 250 93 48 13 0
0 1 7 0 0 0 0 2 0 1 0 2 4 7 1 5 6 0 0 0 0 0 0 0 1 2 0 0 0 17 25 5 53 0 0 0 4 10 2 7 5 0 0 0 0
CIN
0 0 0 0 0 0 0 0 0 0 0 0 0 0 0 0 0 0 0 0 0 0 0 0 0 0 0 0 0 0 0 0 0 0 0 0 0 0 0 0 0 0 -10 -62 -70
0 0 0 0 0 0 0 0 0 0 0 0 0 0 0 0 0 0 0 0 0 0 0 0 0 0 0 0 0 0 0 0 0 0 0 0 0 0 0 0 0 0 -44 -55 -50
0 0 0 0 0 0 0 0 0 0 0 0 0 0 -1 -1 0 0 0 0 0 0 0 0 0 0 0 0 0 0 0 0 0 0 0 0 0 0 0 0 0 0 -2 -41 -31
0 0 0 0 0 0 0 0 0 0 0 0 0 0 -1 -1 0 0 0 0 0 0 0 0 0 0 0 0 0 0 0 0 0 0 0 0 0 0 0 0 0 0 0 -63 -29
0 0 0 0 0 0 0 0 0 0 0 0 0 0 0 0 0 0 0 0 0 0 0 0 0 0 0 0 0 0 0 0 0 0 0 0 0 0 0 0 0 0 0 0 -25
0 0 0 0 0 0 0 0 0 0 0 0 0 -1 0 0 0 0 0 0 0 0 0 0 0 0 0 0 0 0 0 0 0 0 0 0 0 0 0 0 0 0 0 0 0
0 0 0 0 0 0 0 0 0 0 0 0 0 -1 0 0 0 0 0 0 0 0 0 0 0 0 0 0 0 0 0 0 0 0 0 0 0 0 0 0 0 0 0 0 0
0 0 0 0 0 0 0 0 0 0 0 0 0 -1 -1 0 0 0 0 0 0 0 0 0 0 0 0 0 0 0 0 0 0 0 0 0 0 0 0 0 0 0 0 0 0
0 0 0 0 0 0 0 0 0 0 0 0 0 0 0 0 -4 0 -14 0 0 0 0 0 0 0 0 0 0 0 0 0 0 0 0 0 0 0 0 0 0 0 0 0 0
0 0 0 0 0 0 0 0 0 0 0 0 -38 -11 0 0 0 0 0 0 -6 -9 0 0 0 0 0 -1 0 0 0 0 0 0 0 0 0 0 0 0 0 0 0 0 0
0 0 0 0 0 0 0 0 0 0 0 0 0 0 0 0 0 0 0 -18 -13 -27 0 0 0 -3 0 0 0 0 0 0 0 0 0 0 0 0 0 0 0 0 0 0 0
0 0 0 0 0 0 0 0 0 0 0 0 0 -10 -8 0 0 0 0 0 -4 -3 -23 -15 -3 0 0 0 -1 -3 0 0 0 0 0 0 0 0 0 0 0 0 0 0 0
0 0 0 0 0 0 0 0 0 0 0 0 0 0 -2 0 0 -46 0 0 0 0 -19 0 0 0 0 0 0 -2 -4 0 0 0 0 0 0 0 0 0 0 0 0 0 0
0 0 0 0 0 0 0 0 0 0 0 0 -4 -14 0 -2 -7 -33 -2 0 0 0 -7 -4 -8 -21 -56 0 0 0 0 0 0 0 0 0 0 0 0 0 0 0 0 0 0
0 0 0 0 0 0 0 0 0 0 0 0 0 0 0 -11 -3 -70 -11 0 0 -5 -8 0 -59 -46 -14 -29 0 0 0 0 0 0 0 0 -11 0 0 0 0 0 0 0 0
0 0 0 0 0 0 0 0 0 0 0 0 0 0 0 0 -8 -18 -9 0 -4 -33 -55 0 0 -23 -1 -52 -21 -4 0 0 0 0 0 0 0 0 -10 0 0 0 0 0 0
0 0 0 0 0 0 0 0 0 0 0 0 0 0 0 0 -5 -5 -2 -3 0 0 0 0 0 0 0 -14 -65 -10 -17 0 0 0 0 0 0 0 0 0 0 0 0 0 0
0 0 0 0 0 0 0 0 0 0 0 0 -3 0 -2 0 0 0 0 0 0 0 0 0 -8 -3 0 -23 -54 -35 -33 0 0 0 0 0 0 0 0 0 0 0 0 0 0
0 0 0 0 0 0 0 0 0 -4 -1 0 0 0 0 0 -4 0 -3 0 0 -1 0 -21 0 0 -9 -28 -22 -74 -27 -25 -2 -24 0 0 0 0 0 -3 -1 0 0 0 0
0 0 0 0 0 0 0 0 -1 -3 -3 -2 -2 -1 -1 0 0 0 0 -10 0 -2 -4 -3 0 0 -33 -35 -4 0 0 0 0 -8 -12 0 0 0 0 -26 -93 0 0 0 0
0 0 0 0 0 0 0 0 0 0 -2 -1 -2 -2 -3 0 0 0 0 -2 0 0 0 -2 -1 -2 0 -5 -20 -9 -3 0 0 -10 -24 0 0 0 0 -70 -96 -198 0 0 -156
0 0 0 0 0 0 0 0 0 0 0 0 0 0 0 0 0 0 0 0 0 0 0 -2 0 0 0 -111 -2 -70 -25 -40 -30 0 -19 -28 0 -250 -141 -123 -137 -239 -265 -249 -249
0 0 0 0 0 0 0 0 -4 0 0 -1 -1 -5 -5 0 0 -1 -1 0 -1 0 -1 0 0 0 -4 -7 -55 -53 -23 -21 0 -80 -27 0 -35 -190 -179 -226 -233 -228 -151 -172 -175
0 0 0 0 0 0 0 0 0 0 0 0 -5 -2 -1 0 0 -3 0 0 0 0 0 -4 -1 0 0 0 0 0 -21 -22 0 0 -79 -35 -43 -93 -112 -163 -140 -135 -152 -140 -146
0 0 0 0 0 0 0 0 0 -1 0 0 -2 -1 -1 0 -1 -1 0 0 0 0 0 0 0 0 0 0 0 0 -80 -85 0 0 0 0 0 -37 -110 -100 -160 -169 -179 -172 -253
0 0 -1 0 0 0 0 0 0 0 0 0 -1 -2 0 0 0 0 0 0 0 0 0 0 0 0 0 0 0 0 -46 -22 -29 0 -9 -3 -25 -25 -110 -36 -131 -232 -277 -320 0
0 -3 -4 -1 0 0 0 -1 0 0 0 0 -3 -1 -3 0 0 0 0 0 0 0 0 0 0 0 -1 0 -3 -25 -36 -27 -33 -2 0 0 -1 -11 0 -97 -146 0 0 0 0
Wind_Speed
38 39 39 40 39 39 38 37 37 37 38 40 40 42 42 44 46 43 40 26 24 22 31 31 28 22 21 25 24 22 35 45 46 44 43 41 42 42 39 45 41 32 22 4 9
40 40 39 37 36 36 35 35 36 36 37 38 39 41 41 43 45 45 31 27 30 27 27 28 29 26 26 25 27 29 36 33 36 40 44 42 42 41 38 37 46 28 8 6 9
40 38 37 37 37 38 39 39 39 41 40 39 39 39 39 40 43 30 20 20 24 22 27 29 29 29 37 29 31 35 42 32 37 43 44 46 47 40 40 41 34 26 15 11 10
37 37 38 38 39 39 41 42 43 43 42 41 40 39 38 36 44 24 23 30 35 25 19 24 26 32 35 39 32 44 47 42 44 37 39 46 42 41 37 35 28 26 25 14 14
37 39 40 40 40 40 40 41 43 42 41 39 38 38 38 40 42 39 46 46 42 28 27 27 32 31 41 38 36 46 45 42 48 47 49 45 49 44 42 35 28 27 28 29 18
38 40 41 41 42 42 43 43 42 42 40 39 38 35 37 52 37 37 39 40 32 30 31 34 34 33 37 43 45 35 43 46 47 45 50 48 47 40 45 35 29 26 27 29 33
40 41 42 42 43 43 45 45 47 43 41 38 34 33 38 45 34 39 43 48 46 41 42 33 38 40 34 43 45 50 52 44 47 49 50 42 49 53 40 34 30 28 26 24 28
40 41 42 43 44 46 46 45 44 39 39 36 31 30 41 34 34 37 38 41 39 40 40 43 33 40 45 41 45 43 46 56 55 42 47 38 61 47 37 33 31 30 29 24 24
40 40 42 44 45 46 44 44 41 40 37 26 26 25 35 30 28 34 35 35 36 36 35 36 37 46 44 49 48 46 54 55 50 43 37 42 61 43 35 36 34 33 30 28 29
39 41 44 45 46 43 42 41 36 37 27 22 18 25 19 24 38 41 33 31 31 34 36 40 43 49 49 48 57 52 52 51 54 44 44 47 52 41 33 40 38 35 33 29 31
41 43 46 43 42 38 39 38 48 34 32 30 8 12 19 15 17 9 12 31 13 23 33 36 47 51 52 51 52 52 51 51 49 36 44 52 45 40 35 41 39 32 30 26 27
41 44 45 41 38 33 31 35 38 28 13 3 13 1 3 18 23 25 27 14 20 27 24 37 49 45 46 49 54 53 54 52 43 47 38 48 48 41 34 35 41 38 27 23 21
41 44 42 39 32 31 33 34 27 29 12 10 6 8 18 16 15 25 26 4 1 5 18 31 40 38 44 51 55 54 54 52 47 39 43 39 48 44 39 36 34 35 25 21 20
42 42 37 39 29 32 31 33 30 23 12 9 16 16 18 19 15 20 14 15 14 5 12 21 27 36 39 45 50 52 48 50 49 45 50 40 49 43 42 39 34 35 31 25 19
41 36 32 30 26 29 24 22 22 19 25 12 25 21 16 22 17 23 28 11 13 10 24 30 31 31 38 42 39 51 45 47 49 48 45 47 46 44 39 38 39 34 34 27 23
37 29 27 26 23 16 9 8 10 20 23 13 23 21 21 34 36 24 26 16 13 13 18 26 28 34 35 31 39 37 43 46 45 50 52 49 40 48 36 40 36 33 37 30 24
33 22 22 19 26 14 7 9 24 27 10 10 30 24 21 30 24 17 20 19 14 13 16 17 22 37 32 33 35 35 39 46 46 55 50 45 39 36 33 33 31 33 30 26 23
29 21 18 15 17 14 8 22 24 20 16 15 19 17 10 28 13 21 15 14 19 14 14 14 12 20 31 35 30 37 41 39 44 46 53 41 38 37 33 32 29 27 26 23 22
31 26 19 22 16 17 20 29 23 24 23 25 21 20 15 26 17 21 20 9 20 17 15 14 15 18 24 32 41 33 43 38 32 29 46 40 37 35 35 22 27 38 27 23 20
32 25 21 23 18 19 21 25 21 21 20 18 22 13 22 23 15 18 5 9 10 22 22 18 16 11 24 23 27 34 31 39 36 38 42 43 48 37 32 18 19 22 23 22 20
28 27 27 27 21 27 28 24 21 17 24 19 22 17 14 9 11 7 8 4 24 25 24 21 19 19 22 27 40 26 42 38 34 30 34 40 48 40 29 17 11 12 17 18 17
30 30 30 31 31 25 24 23 24 17 31 14 18 7 8 11 7 5 2 7 26 25 16 9 21 23 22 23 26 29 35 37 38 39 30 27 35 31 24 15 9 7 14 15 15
32 25 28 29 34 31 22 19 16 32 32 34 23 16 8 9 8 6 7 3 4 15 8 15 16 18 18 16 21 33 34 32 39 33 37 29 27 20 19 16 13 14 14 15 15
29 32 30 26 30 28 23 18 25 35 16 36 17 12 13 14 3 1 3 3 16 12 9 11 17 19 19 19 21 30 40 42 46 32 34 31 20 19 20 20 17 15 15 14 13
30 30 30 30 28 21 17 36 32 18 24 36 33 23 20 11 12 10 15 16 4 13 16 11 15 19 26 25 23 29 33 42 47 49 32 28 26 21 21 21 21 18 17 16 13
31 30 27 25 23 22 26 23 32 43 18 34 34 29 24 13 12 24 19 16 9 7 12 8 11 15 20 25 28 29 38 39 39 41 34 32 22 15 21 21 21 19 18 15 14
29 25 25 27 26 25 26 22 34 35 20 18 34 30 23 16 24 22 16 14 9 9 7 12 14 13 15 26 29 29 33 37 33 28 27 23 28 29 19 19 19 20 17 15 14
Wind_Direction
341 341 338 338 341 341 343 342 339 336 332 327 322 317 315 309 303 304 298 299 298 290 286 285 283 278 270 265 261 261 261 257 254 253 257 258 259 257 259 254 259 269 283 217 164
343 346 352 355 354 352 348 345 341 338 334 329 325 321 318 315 309 303 306 303 294 285 280 277 272 271 262 261 260 250 255 251 260 259 257 259 260 259 264 265 251 266 260 178 166
356 358 357 355 352 348 345 342 338 334 331 329 325 322 320 320 310 309 325 323 319 297 275 272 270 268 261 258 252 255 253 262 262 258 258 258 259 264 264 260 261 249 255 229 220
2 1 357 354 350 346 342 338 333 330 329 326 324 322 319 315 297 317 310 303 309 305 282 272 265 259 263 255 253 257 257 258 257 261 258 254 261 264 266 268 264 250 246 245 235
2 358 355 352 348 345 341 337 333 330 328 326 323 320 315 301 295 297 298 292 292 287 276 271 262 261 258 260 259 254 257 260 256 255 252 259 257 262 262 267 268 256 248 249 248
1 357 353 350 347 344 340 337 333 330 327 324 322 320 309 296 306 302 297 294 288 281 275 266 266 261 268 260 254 263 258 258 256 255 252 254 256 263 254 263 265 268 251 251 252
0 357 353 350 347 344 341 337 333 331 328 325 322 317 305 302 308 304 298 287 280 277 274 270 261 260 266 264 261 257 257 259 253 251 251 255 254 246 254 261 261 265 259 257 260
359 357 353 350 348 345 342 340 338 336 331 325 323 317 306 312 308 303 302 293 288 275 272 269 261 258 257 264 263 256 254 250 247 249 249 250 243 247 256 259 259 258 263 255 258
359 357 354 350 348 346 345 343 342 341 340 342 337 331 318 325 321 310 301 296 294 284 268 272 264 258 259 253 255 252 247 247 249 248 248 243 244 250 253 257 257 256 259 258 254
0 357 354 352 350 350 349 349 349 347 3 5 13 353 1 342 295 300 308 304 297 288 268 262 261 252 250 247 242 244 245 247 247 246 247 246 249 251 252 253 255 255 256 256 254
0 358 355 354 354 354 356 358 355 2 4 5 322 258 272 268 274 263 251 300 310 293 273 262 254 246 243 245 248 248 250 249 249 251 245 247 249 249 249 250 252 255 249 249 251
1 359 357 358 359 0 6 4 5 12 11 309 40 240 29 24 294 284 313 244 230 293 277 265 252 249 249 248 247 246 246 248 251 248 245 246 249 248 248 252 248 253 244 238 243
1 359 1 2 4 12 6 5 17 7 41 43 53 46 37 20 21 314 274 292 151 258 277 263 259 252 249 244 243 243 242 243 246 247 248 249 247 246 245 247 247 249 247 234 223
1 1 4 6 16 11 15 13 14 26 61 78 14 47 15 16 27 293 10 3 353 348 290 266 265 254 248 243 240 241 242 242 244 244 242 243 244 244 243 239 243 242 247 243 232
1 3 8 12 13 18 19 30 34 49 42 59 23 32 359 26 18 22 4 41 214 206 225 254 263 257 253 246 243 242 242 241 241 243 245 244 246 245 241 236 237 238 243 245 248
1 4 11 23 24 23 15 37 65 61 44 46 17 6 0 11 1 11 9 39 210 200 202 224 224 235 249 257 246 244 237 239 242 239 242 238 245 240 235 230 233 241 245 246 240
360 357 14 26 23 29 1 26 36 36 337 343 318 3 10 11 312 297 304 301 299 187 197 210 211 218 215 254 246 237 232 228 233 231 235 235 244 243 235 231 234 247 241 236 227
356 4 28 28 24 31 5 38 29 28 21 350 347 335 331 322 309 309 300 296 315 252 194 167 131 151 233 196 237 233 231 227 226 229 228 231 237 233 240 244 243 247 239 227 224
4 20 29 28 33 29 25 24 24 13 7 314 320 306 9 314 309 312 300 98 317 312 274 228 289 233 208 220 214 235 231 233 234 241 227 230 234 241 241 247 246 248 229 213 209
11 22 29 23 27 26 32 23 17 18 9 5 309 298 310 312 308 311 252 28 267 327 308 258 232 121 214 251 235 229 230 225 232 226 227 227 226 231 231 244 265 237 208 202 198
20 20 26 22 34 29 25 25 22 17 17 308 302 299 303 10 319 9 94 88 328 312 301 276 257 245 261 208 197 234 225 230 231 234 227 224 227 228 244 236 251 236 204 190 189
20 18 22 22 23 25 23 21 23 10 13 15 25 309 15 351 339 57 165 231 307 323 269 177 259 251 224 225 233 237 228 227 226 223 228 235 228 241 239 213 192 178 164 162 157
15 20 19 28 18 19 23 24 20 15 318 346 300 27 36 332 354 33 79 110 260 286 205 248 238 246 219 175 224 219 229 228 224 227 226 229 228 245 211 199 186 162 158 157 150
16 12 16 24 21 19 16 24 322 12 18 319 304 26 313 309 351 313 256 76 287 268 209 92 214 201 188 184 211 227 218 213 208 218 220 227 236 229 209 194 177 166 158 155 154
20 17 17 9 14 8 9 348 315 329 22 344 335 303 305 311 305 78 296 296 258 92 85 116 214 216 226 210 190 197 213 214 209 202 217 224 233 227 208 194 169 157 149 148 149
16 14 13 5 11 14 20 18 313 334 311 323 316 304 299 291 282 293 294 274 261 158 104 101 136 213 220 195 196 203 203 200 205 211 216 216 231 210 205 180 161 155 148 143 146
17 17 13 11 13 15 17 300 309 316 25 304 310 305 299 290 291 281 266 255 209 212 158 112 120 146 152 131 155 190 211 206 205 212 215 235 225 194 168 167 158 153 146 143 143